TimeEST,TemperatureF,Dew PointF,Humidity,Sea Level PressureIn,VisibilityMPH,Wind Direction,Wind SpeedMPH,Gust SpeedMPH,PrecipitationIn,Events,Conditions,WindDirDegrees,DateUTC
12:15 AM,50.0,48.2,94,29.87,1.2,Calm,Calm,-,0.01,,Overcast,0,2012-12-17 05:15:00
12:35 AM,50.0,48.2,94,29.87,1.5,SE,3.5,-,0.02,,Overcast,140,2012-12-17 05:35:00
12:55 AM,50.0,48.2,94,29.87,1.8,SE,5.8,-,0.03,,Overcast,130,2012-12-17 05:55:00
1:15 AM,50.0,48.2,94,29.86,2.5,SSE,3.5,-,0.02,,Overcast,150,2012-12-17 06:15:00
1:35 AM,50.0,48.2,94,29.86,2.5,SE,3.5,-,0.04,,Overcast,130,2012-12-17 06:35:00
1:55 AM,50.0,48.2,94,29.86,2.5,Calm,Calm,-,0.06,,Overcast,0,2012-12-17 06:55:00
2:15 AM,51.8,48.2,88,29.86,4.0,South,3.5,-,0.01,,Overcast,170,2012-12-17 07:15:00
2:35 AM,51.8,48.2,88,29.85,4.0,Calm,Calm,-,0.01,,Overcast,0,2012-12-17 07:35:00
2:55 AM,51.8,48.2,88,29.86,3.0,South,3.5,-,0.01,,Overcast,170,2012-12-17 07:55:00
3:15 AM,51.8,48.2,88,29.86,4.0,South,3.5,-,N/A,,Overcast,170,2012-12-17 08:15:00
3:35 AM,51.8,48.2,88,29.85,5.0,SE,4.6,-,N/A,,Overcast,140,2012-12-17 08:35:00
3:55 AM,51.8,48.2,88,29.84,6.0,Calm,Calm,-,0.01,,Overcast,0,2012-12-17 08:55:00
4:15 AM,51.8,48.2,88,29.82,4.0,SSE,3.5,-,N/A,,Overcast,150,2012-12-17 09:15:00
4:35 AM,51.8,48.2,88,29.81,3.0,SSE,5.8,-,N/A,,Overcast,150,2012-12-17 09:35:00
4:55 AM,51.8,48.2,88,29.82,1.0,Calm,Calm,-,N/A,,Overcast,0,2012-12-17 09:55:00
5:15 AM,51.8,48.2,88,29.83,0.8,Calm,Calm,-,N/A,,Overcast,0,2012-12-17 10:15:00
5:35 AM,51.8,48.2,88,29.82,0.5,Calm,Calm,-,N/A,,Overcast,0,2012-12-17 10:35:00
5:55 AM,51.8,48.2,88,29.81,0.5,ESE,5.8,-,N/A,,Overcast,120,2012-12-17 10:55:00
6:15 AM,51.8,48.2,88,29.83,0.8,Calm,Calm,-,N/A,,Overcast,0,2012-12-17 11:15:00
6:35 AM,51.8,48.2,88,29.84,0.8,Calm,Calm,-,N/A,,Overcast,0,2012-12-17 11:35:00
6:55 AM,51.8,48.2,88,29.84,1.0,Calm,Calm,-,N/A,,Overcast,0,2012-12-17 11:55:00
7:15 AM,51.8,48.2,88,29.83,0.8,Calm,Calm,-,N/A,,Overcast,0,2012-12-17 12:15:00
7:35 AM,51.8,48.2,88,29.83,0.5,ENE,4.6,-,N/A,,Overcast,70,2012-12-17 12:35:00
7:55 AM,51.8,48.2,88,29.82,0.5,ENE,4.6,-,N/A,,Overcast,70,2012-12-17 12:55:00
8:15 AM,51.8,48.2,88,29.83,0.2,ENE,9.2,-,N/A,,Overcast,70,2012-12-17 13:15:00
8:35 AM,48.2,46.4,93,29.84,0.2,NE,9.2,-,N/A,,Overcast,50,2012-12-17 13:35:00
8:55 AM,48.2,46.4,93,29.84,0.5,ENE,8.1,-,N/A,,Overcast,60,2012-12-17 13:55:00
9:15 AM,48.2,46.4,93,29.85,0.5,ENE,8.1,-,N/A,,Overcast,60,2012-12-17 14:15:00
9:35 AM,48.2,46.4,93,29.84,0.8,ENE,9.2,-,N/A,,Overcast,70,2012-12-17 14:35:00
9:55 AM,48.2,46.4,93,29.85,1.0,NE,9.2,-,N/A,,Overcast,50,2012-12-17 14:55:00
10:15 AM,48.2,46.4,93,29.85,1.2,ENE,9.2,-,N/A,,Overcast,70,2012-12-17 15:15:00
10:35 AM,48.2,46.4,93,29.86,0.8,NE,9.2,-,N/A,,Overcast,50,2012-12-17 15:35:00
10:55 AM,48.2,46.4,93,29.86,0.5,NE,6.9,-,N/A,,Overcast,50,2012-12-17 15:55:00
11:15 AM,48.2,46.4,93,29.87,1.0,ENE,8.1,-,N/A,,Overcast,60,2012-12-17 16:15:00
11:35 AM,48.2,46.4,93,29.87,1.5,NE,8.1,-,N/A,,Overcast,50,2012-12-17 16:35:00
11:55 AM,48.2,46.4,93,29.85,1.8,ENE,9.2,-,N/A,,Overcast,60,2012-12-17 16:55:00
12:15 PM,48.2,46.4,93,29.83,3.0,ENE,8.1,-,N/A,,Overcast,70,2012-12-17 17:15:00
12:35 PM,48.2,46.4,93,29.83,4.0,ENE,8.1,-,N/A,,Overcast,60,2012-12-17 17:35:00
12:55 PM,48.2,46.4,93,29.81,7.0,ENE,8.1,-,N/A,,Overcast,60,2012-12-17 17:55:00
1:15 PM,48.2,46.4,93,29.80,7.0,ENE,8.1,-,N/A,,Overcast,60,2012-12-17 18:15:00
1:35 PM,48.2,46.4,93,29.80,7.0,NE,8.1,-,N/A,,Overcast,40,2012-12-17 18:35:00
1:55 PM,48.2,46.4,93,29.79,10.0,ENE,9.2,-,N/A,,Overcast,60,2012-12-17 18:55:00
2:15 PM,48.2,46.4,93,29.79,10.0,NE,6.9,-,N/A,,Overcast,50,2012-12-17 19:15:00
2:35 PM,48.2,46.4,93,29.79,9.0,ENE,6.9,-,N/A,,Overcast,70,2012-12-17 19:35:00
2:55 PM,48.2,46.4,93,29.78,10.0,ENE,8.1,-,N/A,,Overcast,70,2012-12-17 19:55:00
3:15 PM,48.2,46.4,93,29.78,8.0,ENE,6.9,-,N/A,,Overcast,60,2012-12-17 20:15:00
3:35 PM,48.2,46.4,93,29.76,6.0,ENE,8.1,-,N/A,,Overcast,60,2012-12-17 20:35:00
3:55 PM,48.2,46.4,93,29.77,3.0,ENE,8.1,-,N/A,,Overcast,60,2012-12-17 20:55:00
4:15 PM,48.2,46.4,93,29.78,4.0,ENE,6.9,-,N/A,,Overcast,60,2012-12-17 21:15:00
4:35 PM,48.2,44.6,87,29.77,3.0,ENE,8.1,-,N/A,,Overcast,60,2012-12-17 21:35:00
4:55 PM,48.2,44.6,87,29.76,4.0,ENE,10.4,-,N/A,,Overcast,60,2012-12-17 21:55:00
7:35 PM,48.2,46.4,93,29.69,3.0,East,9.2,-,N/A,,Overcast,90,2012-12-18 00:35:00
7:55 PM,48.2,46.4,93,29.71,2.5,East,4.6,-,N/A,,Overcast,100,2012-12-18 00:55:00
8:15 PM,48.2,46.4,93,29.71,2.0,East,3.5,-,N/A,,Overcast,100,2012-12-18 01:15:00
8:35 PM,50.0,46.4,87,29.68,1.2,East,4.6,-,N/A,,Overcast,100,2012-12-18 01:35:00
8:55 PM,50.0,48.2,94,29.69,1.8,Calm,Calm,-,N/A,,Overcast,0,2012-12-18 01:55:00
9:15 PM,51.8,48.2,88,29.67,2.0,East,3.5,-,N/A,,Overcast,100,2012-12-18 02:15:00
9:35 PM,51.8,48.2,88,29.68,2.5,ESE,3.5,-,N/A,,Overcast,110,2012-12-18 02:35:00
9:55 PM,51.8,48.2,88,29.66,1.8,Calm,Calm,-,N/A,,Overcast,0,2012-12-18 02:55:00
10:15 PM,51.8,50.0,94,29.66,1.8,SSE,4.6,-,N/A,,Overcast,150,2012-12-18 03:15:00
10:35 PM,51.8,50.0,94,29.64,0.8,SE,6.9,-,N/A,,Overcast,140,2012-12-18 03:35:00
10:55 PM,51.8,50.0,94,29.63,0.5,SSE,9.2,-,N/A,,Overcast,160,2012-12-18 03:55:00
11:15 PM,51.8,51.8,100,29.63,0.8,SSE,9.2,-,N/A,,Overcast,160,2012-12-18 04:15:00
11:35 PM,53.6,51.8,94,29.60,3.0,SSE,12.7,-,N/A,,Overcast,160,2012-12-18 04:35:00
11:55 PM,53.6,51.8,94,29.59,4.0,SSE,10.4,-,N/A,,Overcast,160,2012-12-18 04:55:00